Location: Unspecified
(34.4950°S, 58.5160°W)
Time: 23:27:15
(UTC+00:00)

Sich 1 - Pass Details

Date: 19 April 2026
Orbit: 570 x 598 km, 82.5° (Epoch: 16 May)

Event Time Altitude Azimuth Distance (km) Brightness Sun altitude
Rises 08:49:17 0° 356° (N) 2,766 6.4 -19.5°
Reaches altitude 10° 08:51:26 10° 356° (N) 1,880 5.5 -19.0°
Maximum altitude 08:55:35 87° 83° (E) 589 2.9 -18.2°
Drops below altitude 10° 08:59:50 10° 173° (S) 1,923 5.6 -17.3°
Sets 09:02:04 0° 173° (S) 2,835 6.5 -16.8°
